N5ATR Weather Reports


Display with metric or nautical units.
time (UTC)temp
F
wind
direction
speed
MPH
gust
MPH
rain 1hr
in
rain 24hr
in
rain mn
in
humidity
%
barometer
mb
20260506033727 44 294 6.0 9.0 0.00 0.01 0.01 81 1011.8
20260506033224 44 304 9.0 11.0 0.00 0.01 0.01 80 1011.6
20260506032721 44 318 5.0 7.0 0.00 0.01 0.01 78 1011.3
20260506032218 44 21 9.0 13.0 0.00 0.01 0.01 78 1011.8
20260506031714 44 316 5.0 8.0 0.00 0.01 0.01 78 1011.7
20260506031212 45 297 7.0 8.0 0.00 0.01 0.01 77 1011.6
20260506030710 45 318 7.0 9.0 0.00 0.01 0.01 76 1011.7
20260506030207 46 336 7.0 8.0 0.00 0.01 0.01 75 1011.6
20260506025704 46 310 7.0 9.0 0.00 0.01 0.01 73 1011.4
20260506025200 46 315 9.0 10.0 0.00 0.01 0.01 71 1011.3
20260506024657 46 297 10.0 13.0 0.00 0.01 0.01 71 1011.4
20260506024154 47 347 6.0 8.0 0.00 0.01 0.01 70 1011.3
20260506023650 48 254 10.0 13.0 0.00 0.01 0.01 70 1011.1
20260506023147 47 318 6.0 7.0 0.00 0.01 0.01 69 1010.9
20260506022644 47 335 2.0 2.0 0.00 0.01 0.01 69 1010.6
20260506022142 47 294 2.0 3.0 0.00 0.01 0.01 69 1010.8
20260506021640 47 322 1.0 2.0 0.00 0.01 0.01 68 1010.6
20260506021136 47 329 2.0 2.0 0.00 0.01 0.01 68 1010.5
20260506020633 47 304 1.0 2.0 0.00 0.01 0.01 67 1010.3
20260506020131 48 314 2.0 2.0 0.00 0.01 0.01 67 1010.3
20260506015629 48 343 1.0 1.0 0.00 0.01 0.01 66 1010.2
20260506015125 49 271 2.0 2.0 0.00 0.01 0.01 64 1010.2
20260506014623 50 263 2.0 2.0 0.00 0.01 0.01 63 1010.0
20260506014118 50 276 4.0 4.0 0.00 0.01 0.01 63 1010.1
20260506013617 49 313 4.0 4.0 0.00 0.01 0.01 63 1010.0
20260506013113 49 295 5.0 6.0 0.00 0.01 0.01 63 1009.6
20260506012609 49 296 6.0 7.0 0.00 0.01 0.01 62 1009.8
20260506012106 51 327 7.0 9.0 0.00 0.01 0.01 60 1010.1
20260506011604 51 271 6.0 7.0 0.00 0.01 0.01 58 1010.0
20260506011059 52 270 10.0 13.0 0.00 0.01 0.01 56 1010.1
20260506010554 52 274 4.0 4.0 0.00 0.01 0.01 58 1009.6
20260506010050 52 257 4.0 4.0 0.00 0.01 0.01 58 1009.5
20260506005547 52 265 3.0 4.0 0.00 0.01 0.01 58 1009.5
20260506005043 52 280 4.0 6.0 0.00 0.01 0.01 58 1010.0
20260506004540 52 295 6.0 9.0 0.00 0.01 0.01 57 1009.6
20260506004037 53 228 6.0 9.0 0.00 0.01 0.01 56 1009.6
20260506003534 53 230 5.0 7.0 0.00 0.01 0.01 56 1009.7
20260506003030 53 255 6.0 7.0 0.00 0.01 0.01 55 1009.3
20260506002526 54 290 3.0 3.0 0.00 0.01 0.01 54 1009.6
20260506002022 53 256 4.0 4.0 0.00 0.01 0.01 55 1009.6
20260506001518 54 254 6.0 8.0 0.00 0.01 0.01 53 1009.6
20260506001016 56 241 4.0 4.0 0.00 0.01 0.01 50 1009.7
20260506000513 56 315 9.0 13.0 0.00 0.01 0.01 48 1009.3
20260506000010 57 259 9.0 16.0 0.00 0.01 0.01 48 1009.3
20260505235508 56 287 7.0 9.0 0.00 0.01 0.01 50 1009.3
20260505235004 57 262 6.0 7.0 0.00 0.01 0.01 49 1009.6
20260505234502 57 310 9.0 11.0 0.00 0.01 0.01 48 1009.5
20260505233958 58 261 6.0 8.0 0.00 0.01 0.01 46 1009.5
20260505233456 58 230 8.0 11.0 0.00 0.01 0.01 47 1009.3
20260505232953 58 262 6.0 8.0 0.00 0.01 0.01 47 1009.5
20260505232451 57 241 6.0 7.0 0.00 0.01 0.01 50 1009.6
20260505231948 55 229 6.0 7.0 0.00 0.01 0.01 57 1009.3
20260505231445 56 295 5.0 6.0 0.00 0.01 0.01 56 1009.3
20260505230944 56 248 5.0 6.0 0.00 0.01 0.01 54 1009.6
20260505230441 56 275 7.0 10.0 0.00 0.01 0.01 54 1009.5
20260505225937 55 242 4.0 6.0 0.00 0.01 0.01 58 1009.3
20260505225434 54 301 6.0 8.0 0.00 0.01 0.01 59 1009.6
20260505224930 53 272 8.0 10.0 0.00 0.01 0.01 62 1009.6
20260505224427 54 260 6.0 6.0 0.00 0.01 0.01 60 1009.6
20260505223924 53 277 8.0 8.0 0.00 0.01 0.01 64 1009.8
20260505223421 53 283 5.0 6.0 0.00 0.01 0.01 64 1010.3
20260505222918 52 292 7.0 8.0 0.00 0.01 0.01 64 1010.3
20260505222414 52 225 9.0 10.0 0.00 0.01 0.01 59 1010.2
20260505221910 54 190 14.0 18.0 0.00 0.01 0.01 56 1010.0
20260505221408 53 290 7.0 9.0 0.00 0.01 0.01 60 1010.2
20260505220904 54 261 11.0 13.0 0.00 0.01 0.01 57 1010.1
20260505220401 54 303 6.0 8.0 0.00 0.01 0.01 57 1010.1
20260505215859 54 252 11.0 13.0 0.00 0.01 0.01 56 1010.1
20260505215357 55 273 10.0 13.0 0.00 0.01 0.01 58 1010.1
20260505214855 56 288 8.0 10.0 0.00 0.01 0.01 57 1010.1
20260505214352 57 230 7.0 9.0 0.00 0.01 0.01 55 1009.8
20260505213849 57 225 8.0 11.0 0.00 0.01 0.01 55 1010.0
20260505213347 56 237 6.0 8.0 0.00 0.01 0.01 56 1010.2
20260505212842 56 228 13.0 15.0 0.00 0.01 0.01 58 1010.5
20260505212340 58 268 12.0 16.0 0.00 0.01 0.01 54 1010.3
20260505211836 58 245 8.0 11.0 0.00 0.01 0.01 54 1010.3
20260505211334 55 187 9.0 10.0 0.00 0.01 0.01 57 1010.2
20260505210830 55 249 8.0 10.0 0.00 0.01 0.01 58 1010.3
20260505210327 55 246 8.0 9.0 0.00 0.01 0.01 58 1010.0
20260505205824 55 262 7.0 10.0 0.00 0.01 0.01 60 1010.3
20260505205322 57 271 7.0 11.0 0.00 0.01 0.01 58 1010.3
20260505204818 54 211 4.0 6.0 0.00 0.01 0.01 62 1010.8
20260505204317 53 289 4.0 4.0 0.00 0.01 0.01 65 1010.8
20260505203814 54 276 9.0 11.0 0.00 0.01 0.01 63 1010.8
20260505203310 55 267 6.0 9.0 0.00 0.01 0.01 61 1010.8
20260505202806 55 313 6.0 8.0 0.00 0.01 0.01 61 1011.1
20260505202306 55 218 7.0 9.0 0.00 0.01 0.01 61 1010.9
20260505201759 55 156 4.0 8.0 0.00 0.01 0.01 63 1010.7
20260505201257 56 262 6.0 9.0 0.00 0.01 0.01 59 1010.8
20260505200755 55 125 7.0 11.0 0.00 0.01 0.01 63 1010.6
20260505200252 58 246 7.0 11.0 0.00 0.01 0.01 59 1010.8
20260505195747 57 272 7.0 9.0 0.00 0.01 0.01 62 1010.8
20260505195245 55 230 9.0 10.0 0.00 0.01 0.01 64 1010.7
20260505194742 54 250 8.0 10.0 0.00 0.01 0.01 64 1010.8
20260505194238 55 232 9.0 9.0 0.00 0.01 0.01 67 1010.6
20260505193734 53 280 8.0 10.0 0.00 0.01 0.01 74 1010.9
20260505193232 52 264 6.0 8.0 0.00 0.01 0.01 80 1010.8
20260505192730 52 290 5.0 9.0 0.00 0.01 0.01 86 1010.9
20260505192228 50 239 4.0 6.0 0.00 0.01 0.01 89 1011.1
20260505191725 50 235 5.0 7.0 0.05 0.01 0.01 91 1010.9
20260505191224 48 217 3.0 4.0 0.05 0.01 0.01 90 1011.1
20260505190720 49 234 10.0 11.0 0.00 0.00 0.00 83 1011.3
20260505190219 52 152 8.0 9.0 0.00 0.00 0.00 74 1010.9
20260505185716 53 218 6.0 8.0 0.00 0.00 0.00 60 1011.1
20260505185213 55 257 11.0 14.0 0.00 0.00 0.00 57 1010.8
20260505184709 57 231 8.0 11.0 0.00 0.00 0.00 55 1010.8
20260505184207 56 212 8.0 11.0 0.00 0.00 0.00 52 1010.6
20260505183703 57 254 6.0 8.0 0.00 0.00 0.00 54 1010.8
20260505183200 56 251 9.0 11.0 0.00 0.00 0.00 53 1010.8
20260505182656 57 214 5.0 6.0 0.00 0.00 0.00 55 1010.8
20260505182154 56 252 8.0 9.0 0.00 0.00 0.00 55 1011.1
20260505181650 56 222 6.0 8.0 0.00 0.00 0.00 55 1011.2
20260505181148 56 209 4.0 6.0 0.00 0.00 0.00 55 1011.1
20260505180643 56 237 5.0 7.0 0.00 0.00 0.00 54 1010.9
20260505180141 57 229 6.0 7.0 0.00 0.00 0.00 52 1010.9
20260505175637 55 133 3.0 3.0 0.00 0.00 0.00 54 1010.9
20260505175133 55 247 3.0 4.0 0.00 0.00 0.00 55 1011.1
20260505174630 56 225 3.0 4.0 0.00 0.00 0.00 53 1011.1
20260505174126 56 162 6.0 8.0 0.00 0.00 0.00 53 1011.2
20260505173623 55 280 3.0 3.0 0.00 0.00 0.00 54 1011.3
20260505173120 55 250 2.0 2.0 0.00 0.00 0.00 55 1011.1
20260505172618 55 253 4.0 4.0 0.00 0.00 0.00 55 1011.3
20260505172114 55 241 9.0 9.0 0.00 0.00 0.00 54 1011.4
20260505171609 55 255 5.0 7.0 0.00 0.00 0.00 54 1011.6
20260505171106 53 151 2.0 2.0 0.00 0.00 0.00 57 1011.4
20260505170603 53 32 0.0 0.0 0.00 0.00 0.00 56 1011.4
20260505170059 53 196 1.0 1.0 0.00 0.00 0.00 56 1011.6
20260505165554 52 315 4.0 4.0 0.00 0.00 0.00 58 1011.4
20260505165051 52 10 1.0 2.0 0.00 0.00 0.00 59 1011.4
20260505164546 52 299 4.0 4.0 0.00 0.00 0.00 57 1011.3
20260505164044 51 273 2.0 2.0 0.00 0.00 0.00 59 1011.6
20260505163543 50 316 4.0 4.0 0.00 0.00 0.00 60 1011.7
20260505163040 49 322 4.0 6.0 0.00 0.00 0.00 62 1011.7
20260505162538 50 349 6.0 8.0 0.00 0.00 0.00 61 1011.8
20260505162035 50 321 8.0 9.0 0.00 0.00 0.00 60 1011.7
20260505161532 50 323 3.0 4.0 0.00 0.00 0.00 61 1012.3
20260505161029 49 326 4.0 6.0 0.00 0.00 0.00 61 1011.8
20260505160527 49 325 5.0 7.0 0.00 0.00 0.00 60 1012.1
20260505153003 50 3 4.0 6.0 0.00 0.00 0.00 59 1012.2
20260505152501 50 310 5.0 8.0 0.00 0.00 0.00 60 1012.1
20260505151956 49 334 5.0 7.0 0.00 0.00 0.00 59 1011.9
20260505151451 49 310 4.0 6.0 0.00 0.00 0.00 61 1012.1
20260505150949 48 287 4.0 7.0 0.00 0.00 0.00 62 1012.3
20260505150445 48 330 5.0 7.0 0.00 0.00 0.00 62 1012.1
20260505140415 51 305 5.0 6.0 0.00 0.00 0.00 51 1012.4
20260505124829 49 290 4.0 6.0 0.00 0.00 0.00 53 1011.7
20260505124326 49 250 3.0 3.0 0.00 0.00 0.00 52 1011.8
20260505123822 49 261 3.0 4.0 0.00 0.00 0.00 51 1011.7
20260505123319 48 274 3.0 3.0 0.00 0.00 0.00 50 1011.9
20260505122815 48 223 4.0 6.0 0.00 0.00 0.00 50 1011.9
20260505122312 48 252 3.0 3.0 0.00 0.00 0.00 50 1011.9
20260505121809 48 224 2.0 2.0 0.00 0.00 0.00 49 1011.6
20260505121306 49 319 1.0 1.0 0.00 0.00 0.00 48 1011.9
20260505120802 49 295 3.0 4.0 0.00 0.00 0.00 48 1011.7
20260505120258 49 259 3.0 3.0 0.00 0.00 0.00 47 1011.6
20260505115757 48 325 2.0 2.0 0.00 0.00 0.00 47 1011.7
20260505115254 49 307 0.0 1.0 0.00 0.00 0.00 47 1011.4
20260505114752 49 271 2.0 2.0 0.00 0.00 0.00 46 1011.3
20260505114248 49 234 3.0 4.0 0.00 0.00 0.00 45 1011.4
20260505113745 48 49 2.0 2.0 0.00 0.00 0.00 46 1011.6
20260505113241 48 356 0.0 0.0 0.00 0.00 0.00 47 1011.3
20260505112737 48 352 0.0 0.0 0.00 0.00 0.00 46 1011.4
20260505112235 49 351 0.0 0.0 0.00 0.00 0.00 45 1011.9
20260505111735 49 5 0.0 0.0 0.00 0.00 0.00 42 1011.7
20260505111231 50 358 0.0 0.0 0.00 0.00 0.00 42 1011.8
20260505110727 50 350 0.0 0.0 0.00 0.00 0.00 41 1011.8
20260505110225 50 342 1.0 1.0 0.00 0.00 0.00 40 1011.7
20260505102200 52 354 0.0 0.0 0.00 0.00 0.00 36 1011.2
20260505101659 52 10 0.0 0.0 0.00 0.00 0.00 35 1011.6
20260505101154 52 114 2.0 2.0 0.00 0.00 0.00 33 1011.4
20260505100651 53 165 3.0 4.0 0.00 0.00 0.00 32 1011.6
20260505100148 54 39 1.0 1.0 0.00 0.00 0.00 29 1011.3
20260505095644 55 116 4.0 4.0 0.00 0.00 0.00 24 1010.9
20260505095142 54 210 6.0 9.0 0.00 0.00 0.00 24 1010.8
20260505094637 54 280 4.0 6.0 0.00 0.00 0.00 26 1011.1
20260505094134 53 325 5.0 7.0 0.00 0.00 0.00 27 1011.1
20260505093630 53 297 4.0 4.0 0.00 0.00 0.00 31 1011.3
20260505093127 53 307 2.0 3.0 0.00 0.00 0.00 33 1011.3
20260505092624 54 321 5.0 7.0 0.00 0.00 0.00 32 1011.3
20260505092123 53 265 9.0 13.0 0.00 0.00 0.00 35 1010.9
20260505091619 53 256 8.0 10.0 0.00 0.00 0.00 40 1011.2
20260505091118 53 238 5.0 6.0 0.00 0.00 0.00 40 1011.2
20260505090615 53 261 14.0 18.0 0.00 0.00 0.00 39 1011.3
20260505090113 54 258 4.0 7.0 0.00 0.00 0.00 39 1010.9
20260505085610 55 299 8.0 10.0 0.00 0.00 0.00 38 1010.8
20260505085109 54 273 7.0 9.0 0.00 0.00 0.00 39 1011.2
20260505084606 54 239 7.0 8.0 0.00 0.00 0.00 39 1011.1
20260505084104 54 208 9.0 10.0 0.00 0.00 0.00 40 1011.7
20260505083601 54 279 9.0 10.0 0.00 0.00 0.00 40 1011.3
20260505083058 54 277 6.0 9.0 0.00 0.00 0.00 40 1011.6
20260505082553 54 274 8.0 13.0 0.00 0.00 0.00 40 1011.3
20260505082051 55 279 10.0 13.0 0.00 0.00 0.00 39 1011.7
20260505081547 55 319 6.0 7.0 0.00 0.00 0.00 39 1011.6
20260505081044 55 256 7.0 9.0 0.00 0.00 0.00 39 1011.7
20260505080540 55 221 9.0 13.0 0.00 0.00 0.00 39 1012.1
20260505080037 55 268 9.0 11.0 0.00 0.00 0.00 38 1011.7
20260505075533 56 268 12.0 14.0 0.00 0.00 0.00 37 1012.1
20260505075030 56 2 11.0 16.0 0.00 0.00 0.00 37 1011.9
20260505074527 56 332 5.0 6.0 0.00 0.00 0.00 37 1011.7
20260505074024 56 268 9.0 10.0 0.00 0.00 0.00 36 1011.8
20260505073522 56 249 8.0 13.0 0.00 0.00 0.00 37 1011.4
20260505073020 56 272 9.0 11.0 0.00 0.00 0.00 36 1011.6
20260505072515 56 209 9.0 11.0 0.00 0.00 0.00 36 1011.3
20260505072012 56 253 6.0 9.0 0.00 0.00 0.00 36 1011.9
20260505071507 56 286 7.0 8.0 0.00 0.00 0.00 36 1011.9
20260505071006 56 305 5.0 8.0 0.00 0.00 0.00 36 1011.8
20260505070502 56 265 5.0 6.0 0.00 0.00 0.00 36 1012.1
20260505065958 56 249 8.0 9.0 0.00 0.00 0.00 36 1012.1
20260505065454 56 275 3.0 3.0 0.00 0.00 0.00 35 1011.8
20260505064951 56 281 4.0 6.0 0.00 0.00 0.00 36 1011.9
20260505064448 56 270 4.0 6.0 0.00 0.00 0.00 35 1011.9
20260505063947 56 266 3.0 3.0 0.00 0.00 0.00 35 1011.9
20260505063443 57 336 1.0 2.0 0.00 0.00 0.00 34 1012.2
20260505062939 57 294 4.0 4.0 0.00 0.00 0.00 34 1012.4
20260505062436 57 255 5.0 7.0 0.00 0.00 0.00 34 1012.7
20260505061933 57 306 6.0 7.0 0.00 0.00 0.00 33 1012.3
20260505061431 57 238 6.0 9.0 0.00 0.00 0.00 33 1012.3
20260505060928 57 273 4.0 4.0 0.00 0.00 0.00 33 1012.2
20260505060425 57 257 4.0 4.0 0.00 0.00 0.00 33 1012.1
20260505055922 57 307 2.0 2.0 0.00 0.00 0.00 33 1012.3
20260505055418 57 313 2.0 3.0 0.00 0.00 0.00 33 1012.4
20260505054915 57 238 3.0 4.0 0.00 0.00 0.00 33 1012.4
20260505054412 58 270 3.0 3.0 0.00 0.00 0.00 32 1012.3
20260505053910 58 267 4.0 6.0 0.00 0.00 0.00 32 1012.1
20260505053407 58 289 4.0 6.0 0.00 0.00 0.00 32 1012.3
20260505052903 57 300 3.0 3.0 0.00 0.00 0.00 32 1012.5
20260505052400 58 264 4.0 4.0 0.00 0.00 0.00 32 1012.2
20260505051858 58 251 2.0 3.0 0.00 0.00 0.00 31 1012.2
20260505051355 59 279 3.0 3.0 0.00 0.00 0.00 31 1012.2
20260505050853 59 256 6.0 8.0 0.00 0.00 0.00 31 1012.2
20260505050351 59 266 4.0 6.0 0.00 0.00 0.00 31 1011.7
20260505041318 60 298 7.0 8.0 0.00 0.00 0.00 31 1011.7
20260505040815 60 281 8.0 9.0 0.00 0.00 0.00 31 1011.8
20260505040313 60 321 6.0 7.0 0.00 0.00 0.00 31 1011.9
20260505035809 60 284 4.0 6.0 0.00 0.00 0.00 31 1012.1
20260505035305 60 259 7.0 9.0 0.00 0.00 0.00 31 1011.9
20260505034803 60 279 9.0 13.0 0.00 0.00 0.00 30 1011.7
20260505034259 60 257 4.0 6.0 0.00 0.00 0.00 30 1011.6
20260505033756 61 329 9.0 11.0 0.00 0.00 0.00 30 1011.3